Time,TemperatureF,DewpointF,PressureIn,WindDirection,WindDirectionDegrees,WindSpeedMPH,WindSpeedGustMPH,Humidity,HourlyPrecipIn,Conditions,Clouds,dailyrainin,SoftwareType,DateUTC
2013-01-05 00:00:00,26.2,8.3,30.11,West,259,3.0,9.0,46,0.00,,,-99.99,Weather View 32 v60,2013-01-05 05:00:00,
2013-01-05 00:09:00,26.2,8.3,30.11,SW,234,8.0,9.0,46,0.00,,,-99.99,Weather View 32 v60,2013-01-05 05:09:00,
2013-01-05 00:10:00,26.2,8.3,30.11,West,266,4.0,9.0,46,0.00,,,-99.99,Weather View 32 v60,2013-01-05 05:10:00,
2013-01-05 00:15:00,26.1,8.6,30.11,SW,229,6.0,8.0,47,0.00,,,-99.99,Weather View 32 v60,2013-01-05 05:15:00,
2013-01-05 00:20:00,26.1,8.6,30.11,WSW,246,3.0,8.0,47,0.00,,,-99.99,Weather View 32 v60,2013-01-05 05:20:00,
2013-01-05 00:25:00,26.1,8.6,30.11,SW,215,6.0,8.0,47,0.00,,,-99.99,Weather View 32 v60,2013-01-05 05:25:00,
2013-01-05 00:30:00,26.1,8.6,30.11,West,261,3.0,8.0,47,0.00,,,-99.99,Weather View 32 v60,2013-01-05 05:30:00,
2013-01-05 00:35:00,26.1,8.6,30.11,WSW,245,3.0,8.0,47,0.00,,,-99.99,Weather View 32 v60,2013-01-05 05:35:00,
2013-01-05 00:40:00,26.1,8.6,30.11,West,269,4.0,8.0,47,0.00,,,-99.99,Weather View 32 v60,2013-01-05 05:40:00,
2013-01-05 00:45:00,26.1,8.6,30.11,WSW,248,4.0,8.0,47,0.00,,,-99.99,Weather View 32 v60,2013-01-05 05:45:00,
2013-01-05 00:55:00,25.9,8.4,30.11,WSW,242,3.0,8.0,47,0.00,,,-99.99,Weather View 32 v60,2013-01-05 05:55:00,
2013-01-05 01:00:00,25.9,8.4,30.11,WSW,254,6.0,8.0,47,0.00,,,-99.99,Weather View 32 v60,2013-01-05 06:00:00,
2013-01-05 01:05:00,25.9,8.4,30.11,WSW,247,4.0,8.0,47,0.00,,,-99.99,Weather View 32 v60,2013-01-05 06:05:00,
2013-01-05 01:15:00,25.9,8.4,30.11,WSW,253,3.0,8.0,47,0.00,,,-99.99,Weather View 32 v60,2013-01-05 06:15:00,
2013-01-05 01:20:00,25.7,8.7,30.11,WSW,251,3.0,6.0,48,0.00,,,-99.99,Weather View 32 v60,2013-01-05 06:20:00,
2013-01-05 01:25:00,25.7,8.7,30.11,WSW,243,4.0,6.0,48,0.00,,,-99.99,Weather View 32 v60,2013-01-05 06:25:00,
2013-01-05 01:30:00,25.7,8.7,30.11,West,276,4.0,6.0,48,0.00,,,-99.99,Weather View 32 v60,2013-01-05 06:30:00,
2013-01-05 01:35:00,25.7,8.7,30.11,West,259,3.0,6.0,48,0.00,,,-99.99,Weather View 32 v60,2013-01-05 06:35:00,
2013-01-05 01:45:00,25.5,8.5,30.11,WSW,256,3.0,6.0,48,0.00,,,-99.99,Weather View 32 v60,2013-01-05 06:45:00,
2013-01-05 01:50:00,25.5,8.5,30.14,WSW,241,4.0,6.0,48,0.00,,,-99.99,Weather View 32 v60,2013-01-05 06:50:00,
2013-01-05 01:55:00,25.5,8.5,30.14,WSW,245,4.0,6.0,48,0.00,,,-99.99,Weather View 32 v60,2013-01-05 06:55:00,
2013-01-05 02:00:00,25.5,8.5,30.14,West,260,4.0,6.0,48,0.00,,,-99.99,Weather View 32 v60,2013-01-05 07:00:00,
2013-01-05 02:05:00,25.3,8.4,30.14,West,277,4.0,6.0,48,0.00,,,-99.99,Weather View 32 v60,2013-01-05 07:05:00,
2013-01-05 02:10:00,25.3,8.8,30.14,West,279,5.0,6.0,49,0.00,,,-99.99,Weather View 32 v60,2013-01-05 07:10:00,
2013-01-05 02:20:00,25.3,8.8,30.14,West,272,3.0,6.0,49,0.00,,,-99.99,Weather View 32 v60,2013-01-05 07:20:00,
2013-01-05 02:30:00,25.2,9.1,30.14,WSW,258,4.0,6.0,50,0.00,,,-99.99,Weather View 32 v60,2013-01-05 07:30:00,
2013-01-05 02:35:00,25.2,9.1,30.14,WSW,257,4.0,6.0,50,0.00,,,-99.99,Weather View 32 v60,2013-01-05 07:35:00,
2013-01-05 02:40:00,25.2,9.1,30.14,West,264,5.0,6.0,50,0.00,,,-99.99,Weather View 32 v60,2013-01-05 07:40:00,
2013-01-05 02:45:00,25.2,9.1,30.14,WSW,257,4.0,6.0,50,0.00,,,-99.99,Weather View 32 v60,2013-01-05 07:45:00,
2013-01-05 02:50:00,25.0,9.0,30.14,West,267,4.0,6.0,50,0.00,,,-99.99,Weather View 32 v60,2013-01-05 07:50:00,
2013-01-05 02:55:00,25.0,9.4,30.14,West,265,4.0,6.0,51,0.00,,,-99.99,Weather View 32 v60,2013-01-05 07:55:00,
2013-01-05 03:05:00,25.0,9.4,30.14,WSW,250,4.0,6.0,51,0.00,,,-99.99,Weather View 32 v60,2013-01-05 08:05:00,
2013-01-05 03:10:00,24.8,9.7,30.14,West,272,3.0,6.0,52,0.00,,,-99.99,Weather View 32 v60,2013-01-05 08:10:00,
2013-01-05 03:15:00,24.8,9.7,30.14,West,275,3.0,6.0,52,0.00,,,-99.99,Weather View 32 v60,2013-01-05 08:15:00,
2013-01-05 03:20:00,24.8,9.7,30.14,WSW,258,4.0,6.0,52,0.00,,,-99.99,Weather View 32 v60,2013-01-05 08:20:00,
2013-01-05 03:25:00,24.6,9.5,30.14,WSW,246,3.0,6.0,52,0.00,,,-99.99,Weather View 32 v60,2013-01-05 08:25:00,
2013-01-05 03:30:00,24.6,9.1,30.14,WSW,241,6.0,6.0,51,0.00,,,-99.99,Weather View 32 v60,2013-01-05 08:30:00,
2013-01-05 03:35:00,24.4,8.9,30.14,West,273,5.0,8.0,51,0.00,,,-99.99,Weather View 32 v60,2013-01-05 08:35:00,
2013-01-05 03:40:00,24.4,8.9,30.17,WSW,256,5.0,8.0,51,0.00,,,-99.99,Weather View 32 v60,2013-01-05 08:40:00,
2013-01-05 03:45:00,24.4,9.3,30.17,West,270,5.0,8.0,52,0.00,,,-99.99,Weather View 32 v60,2013-01-05 08:45:00,
2013-01-05 03:50:00,24.4,9.3,30.17,West,275,3.0,8.0,52,0.00,,,-99.99,Weather View 32 v60,2013-01-05 08:50:00,
2013-01-05 03:55:00,24.4,9.3,30.17,WSW,251,3.0,8.0,52,0.00,,,-99.99,Weather View 32 v60,2013-01-05 08:55:00,
2013-01-05 04:00:00,24.3,9.2,30.17,WSW,251,0.0,8.0,52,0.00,,,-99.99,Weather View 32 v60,2013-01-05 09:00:00,
2013-01-05 04:05:00,24.3,9.2,30.17,WSW,251,0.0,8.0,52,0.00,,,-99.99,Weather View 32 v60,2013-01-05 09:05:00,
2013-01-05 04:10:00,24.1,8.6,30.17,WSW,247,0.0,8.0,51,0.00,,,-99.99,Weather View 32 v60,2013-01-05 09:10:00,
2013-01-05 04:15:00,23.9,8.4,30.17,WSW,247,0.0,8.0,51,0.00,,,-99.99,Weather View 32 v60,2013-01-05 09:15:00,
2013-01-05 04:20:00,23.7,8.2,30.17,WSW,247,0.0,8.0,51,0.00,,,-99.99,Weather View 32 v60,2013-01-05 09:20:00,
2013-01-05 04:25:00,23.5,7.6,30.17,WSW,247,0.0,8.0,50,0.00,,,-99.99,Weather View 32 v60,2013-01-05 09:25:00,
2013-01-05 04:30:00,23.5,7.6,30.17,WSW,247,0.0,8.0,50,0.00,,,-99.99,Weather View 32 v60,2013-01-05 09:30:00,
2013-01-05 04:35:00,23.2,7.3,30.17,WSW,247,0.0,6.0,50,0.00,,,-99.99,Weather View 32 v60,2013-01-05 09:35:00,
2013-01-05 04:40:00,23.0,7.1,30.17,WSW,247,0.0,6.0,50,0.00,,,-99.99,Weather View 32 v60,2013-01-05 09:40:00,
2013-01-05 04:45:00,22.8,6.5,30.17,WSW,247,0.0,6.0,49,0.00,,,-99.99,Weather View 32 v60,2013-01-05 09:45:00,
2013-01-05 04:50:00,22.6,6.3,30.17,WSW,247,0.0,4.0,49,0.00,,,-99.99,Weather View 32 v60,2013-01-05 09:50:00,
2013-01-05 04:55:00,22.5,5.7,30.17,WSW,247,0.0,4.0,48,0.00,,,-99.99,Weather View 32 v60,2013-01-05 09:55:00,
2013-01-05 05:00:00,22.1,5.4,30.17,WSW,247,0.0,0.0,48,0.00,,,-99.99,Weather View 32 v60,2013-01-05 10:00:00,
2013-01-05 05:05:00,21.7,4.6,30.17,WSW,247,0.0,0.0,47,0.00,,,-99.99,Weather View 32 v60,2013-01-05 10:05:00,
2013-01-05 05:10:00,21.6,4.4,30.17,WSW,247,0.0,0.0,47,0.00,,,-99.99,Weather View 32 v60,2013-01-05 10:10:00,
2013-01-05 05:15:00,21.2,4.1,30.17,WSW,247,0.0,0.0,47,0.00,,,-99.99,Weather View 32 v60,2013-01-05 10:15:00,
2013-01-05 05:20:00,21.0,3.9,30.17,WSW,247,0.0,0.0,47,0.00,,,-99.99,Weather View 32 v60,2013-01-05 10:20:00,
2013-01-05 05:25:00,20.8,3.8,30.17,WSW,247,0.0,0.0,47,0.00,,,-99.99,Weather View 32 v60,2013-01-05 10:25:00,
2013-01-05 05:30:00,20.5,3.4,30.17,WSW,247,0.0,0.0,47,0.00,,,-99.99,Weather View 32 v60,2013-01-05 10:30:00,
2013-01-05 05:35:00,20.3,3.3,30.17,WSW,247,0.0,0.0,47,0.00,,,-99.99,Weather View 32 v60,2013-01-05 10:35:00,
2013-01-05 05:40:00,20.1,3.1,30.17,WSW,247,0.0,0.0,47,0.00,,,-99.99,Weather View 32 v60,2013-01-05 10:40:00,
2013-01-05 05:45:00,19.9,2.9,30.17,WSW,247,0.0,0.0,47,0.00,,,-99.99,Weather View 32 v60,2013-01-05 10:45:00,
2013-01-05 05:50:00,19.8,2.8,30.17,WSW,247,0.0,0.0,47,0.00,,,-99.99,Weather View 32 v60,2013-01-05 10:50:00,
2013-01-05 05:55:00,19.6,2.6,30.17,WSW,247,0.0,0.0,47,0.00,,,-99.99,Weather View 32 v60,2013-01-05 10:55:00,
2013-01-05 06:00:00,19.4,2.5,30.17,WSW,247,0.0,0.0,47,0.00,,,-99.99,Weather View 32 v60,2013-01-05 11:00:00,
2013-01-05 06:05:00,19.0,2.1,30.17,WSW,247,0.0,0.0,47,0.00,,,-99.99,Weather View 32 v60,2013-01-05 11:05:00,
2013-01-05 06:10:00,18.9,2.0,30.17,WSW,247,0.0,0.0,47,0.00,,,-99.99,Weather View 32 v60,2013-01-05 11:10:00,
2013-01-05 06:15:00,18.5,1.6,30.17,WSW,247,0.0,0.0,47,0.00,,,-99.99,Weather View 32 v60,2013-01-05 11:15:00,
2013-01-05 06:20:00,18.1,1.3,30.17,WSW,247,0.0,0.0,47,0.00,,,-99.99,Weather View 32 v60,2013-01-05 11:20:00,
2013-01-05 06:25:00,18.0,1.6,30.17,WSW,247,0.0,0.0,48,0.00,,,-99.99,Weather View 32 v60,2013-01-05 11:25:00,
2013-01-05 06:30:00,17.8,1.4,30.17,WSW,247,0.0,0.0,48,0.00,,,-99.99,Weather View 32 v60,2013-01-05 11:30:00,
2013-01-05 06:35:00,17.8,1.4,30.17,WSW,247,0.0,0.0,48,0.00,,,-99.99,Weather View 32 v60,2013-01-05 11:35:00,
2013-01-05 06:40:00,17.4,1.1,30.17,WSW,247,0.0,0.0,48,0.00,,,-99.99,Weather View 32 v60,2013-01-05 11:40:00,
2013-01-05 06:45:00,17.2,0.5,30.17,WSW,247,0.0,0.0,47,0.00,,,-99.99,Weather View 32 v60,2013-01-05 11:45:00,
2013-01-05 06:50:00,16.9,0.1,30.17,WSW,247,0.0,0.0,47,0.00,,,-99.99,Weather View 32 v60,2013-01-05 11:50:00,
2013-01-05 06:55:00,16.7,0.0,30.17,WSW,247,0.0,0.0,47,0.00,,,-99.99,Weather View 32 v60,2013-01-05 11:55:00,
2013-01-05 07:00:00,16.5,-0.7,30.17,WSW,247,0.0,0.0,46,0.00,,,-99.99,Weather View 32 v60,2013-01-05 12:00:00,
2013-01-05 07:05:00,16.0,-1.2,30.14,WSW,247,0.0,0.0,46,0.00,,,-99.99,Weather View 32 v60,2013-01-05 12:05:00,
2013-01-05 07:13:00,15.8,-1.3,30.14,WSW,247,0.0,0.0,46,0.00,,,-99.99,Weather View 32 v60,2013-01-05 12:13:00,
2013-01-05 07:20:00,15.4,-1.6,30.17,WSW,247,0.0,0.0,46,0.00,,,-99.99,Weather View 32 v60,2013-01-05 12:20:00,
2013-01-05 07:25:00,15.3,-1.8,30.17,WSW,247,0.0,0.0,46,0.00,,,-99.99,Weather View 32 v60,2013-01-05 12:25:00,
2013-01-05 07:30:00,15.1,-2.0,30.17,WSW,247,0.0,0.0,46,0.00,,,-99.99,Weather View 32 v60,2013-01-05 12:30:00,
2013-01-05 07:35:00,15.1,-2.0,30.17,WSW,247,0.0,0.0,46,0.00,,,-99.99,Weather View 32 v60,2013-01-05 12:35:00,
2013-01-05 07:40:00,14.9,-2.1,30.17,WSW,247,0.0,0.0,46,0.00,,,-99.99,Weather View 32 v60,2013-01-05 12:40:00,
2013-01-05 07:45:00,14.7,-2.3,30.17,WSW,247,0.0,0.0,46,0.00,,,-99.99,Weather View 32 v60,2013-01-05 12:45:00,
2013-01-05 07:50:00,14.5,-2.5,30.17,WSW,247,0.0,0.0,46,0.00,,,-99.99,Weather View 32 v60,2013-01-05 12:50:00,
2013-01-05 07:55:00,14.4,-2.6,30.17,WSW,247,0.0,0.0,46,0.00,,,-99.99,Weather View 32 v60,2013-01-05 12:55:00,
2013-01-05 08:00:00,14.4,-2.6,30.17,WSW,247,0.0,0.0,46,0.00,,,-99.99,Weather View 32 v60,2013-01-05 13:00:00,
2013-01-05 08:05:00,14.2,-2.8,30.17,WSW,247,0.0,0.0,46,0.00,,,-99.99,Weather View 32 v60,2013-01-05 13:05:00,
2013-01-05 08:10:00,14.0,-2.5,30.17,WSW,247,0.0,0.0,47,0.00,,,-99.99,Weather View 32 v60,2013-01-05 13:10:00,
2013-01-05 08:15:00,13.8,-2.7,30.17,WSW,247,0.0,0.0,47,0.00,,,-99.99,Weather View 32 v60,2013-01-05 13:15:00,
2013-01-05 08:20:00,13.6,-2.9,30.17,WSW,247,0.0,0.0,47,0.00,,,-99.99,Weather View 32 v60,2013-01-05 13:20:00,
2013-01-05 08:25:00,13.5,-3.0,30.17,WSW,247,0.0,0.0,47,0.00,,,-99.99,Weather View 32 v60,2013-01-05 13:25:00,
2013-01-05 08:35:00,13.5,-3.0,30.17,WSW,247,0.0,0.0,47,0.00,,,-99.99,Weather View 32 v60,2013-01-05 13:35:00,
2013-01-05 08:40:00,13.3,-3.2,30.17,WSW,247,0.0,0.0,47,0.00,,,-99.99,Weather View 32 v60,2013-01-05 13:40:00,
2013-01-05 08:45:00,13.3,-3.2,30.17,WSW,247,0.0,0.0,47,0.00,,,-99.99,Weather View 32 v60,2013-01-05 13:45:00,
2013-01-05 08:50:00,13.3,-3.2,30.17,WSW,247,0.0,0.0,47,0.00,,,-99.99,Weather View 32 v60,2013-01-05 13:50:00,
2013-01-05 08:55:00,13.3,-3.2,30.17,WSW,247,0.0,0.0,47,0.00,,,-99.99,Weather View 32 v60,2013-01-05 13:55:00,
2013-01-05 09:00:00,13.3,-3.2,30.17,WSW,247,0.0,0.0,47,0.00,,,-99.99,Weather View 32 v60,2013-01-05 14:00:00,
2013-01-05 09:05:00,13.3,-3.2,30.17,WSW,247,0.0,0.0,47,0.00,,,-99.99,Weather View 32 v60,2013-01-05 14:05:00,
2013-01-05 09:10:00,13.3,-3.2,30.17,WSW,247,0.0,0.0,47,0.00,,,-99.99,Weather View 32 v60,2013-01-05 14:10:00,
2013-01-05 09:15:00,13.1,-3.3,30.17,WSW,247,0.0,0.0,47,0.00,,,-99.99,Weather View 32 v60,2013-01-05 14:15:00,
2013-01-05 09:20:00,13.3,-3.2,30.17,WSW,247,0.0,0.0,47,0.00,,,-99.99,Weather View 32 v60,2013-01-05 14:20:00,
2013-01-05 09:25:00,13.3,-3.2,30.17,WSW,247,0.0,0.0,47,0.00,,,-99.99,Weather View 32 v60,2013-01-05 14:25:00,
2013-01-05 09:30:00,13.3,-3.2,30.17,WSW,247,0.0,0.0,47,0.00,,,-99.99,Weather View 32 v60,2013-01-05 14:30:00,
2013-01-05 09:40:00,13.6,-2.9,30.17,WSW,247,0.0,0.0,47,0.00,,,-99.99,Weather View 32 v60,2013-01-05 14:40:00,
2013-01-05 09:45:00,13.8,-2.7,30.17,WSW,247,0.0,0.0,47,0.00,,,-99.99,Weather View 32 v60,2013-01-05 14:45:00,
2013-01-05 09:50:00,14.2,-1.9,30.20,WSW,247,0.0,0.0,48,0.00,,,-99.99,Weather View 32 v60,2013-01-05 14:50:00,
2013-01-05 09:55:00,14.5,-1.1,30.20,WSW,247,0.0,0.0,49,0.00,,,-99.99,Weather View 32 v60,2013-01-05 14:55:00,
2013-01-05 10:00:00,15.1,-0.2,30.20,WSW,247,0.0,0.0,50,0.00,,,-99.99,Weather View 32 v60,2013-01-05 15:00:00,
2013-01-05 10:05:00,16.0,1.0,30.20,WSW,247,0.0,0.0,51,0.00,,,-99.99,Weather View 32 v60,2013-01-05 15:05:00,
2013-01-05 10:10:00,16.9,2.3,30.20,WSW,247,0.0,0.0,52,0.00,,,-99.99,Weather View 32 v60,2013-01-05 15:10:00,
2013-01-05 10:15:00,17.6,3.4,30.20,WSW,247,0.0,0.0,53,0.00,,,-99.99,Weather View 32 v60,2013-01-05 15:15:00,
2013-01-05 10:20:00,18.1,3.9,30.20,WSW,252,0.0,0.0,53,0.00,,,-99.99,Weather View 32 v60,2013-01-05 15:20:00,
2013-01-05 10:25:00,18.7,4.8,30.20,SW,233,0.0,0.0,54,0.00,,,-99.99,Weather View 32 v60,2013-01-05 15:25:00,
2013-01-05 10:30:00,19.6,5.6,30.20,SW,218,0.0,3.0,54,0.00,,,-99.99,Weather View 32 v60,2013-01-05 15:30:00,
2013-01-05 10:35:00,20.3,6.7,30.20,SW,215,0.0,3.0,55,0.00,,,-99.99,Weather View 32 v60,2013-01-05 15:35:00,
2013-01-05 10:40:00,20.7,7.0,30.20,SSW,204,0.0,3.0,55,0.00,,,-99.99,Weather View 32 v60,2013-01-05 15:40:00,
2013-01-05 10:45:00,21.0,7.8,30.20,SSW,204,0.0,3.0,56,0.00,,,-99.99,Weather View 32 v60,2013-01-05 15:45:00,
2013-01-05 10:50:00,21.2,7.9,30.20,SSW,203,0.0,3.0,56,0.00,,,-99.99,Weather View 32 v60,2013-01-05 15:50:00,
2013-01-05 10:55:00,21.6,8.7,30.17,SSW,204,0.0,3.0,57,0.00,,,-99.99,Weather View 32 v60,2013-01-05 15:55:00,
2013-01-05 11:00:00,22.1,9.2,30.17,SSW,201,0.0,3.0,57,0.00,,,-99.99,Weather View 32 v60,2013-01-05 16:00:00,
2013-01-05 11:10:00,23.0,10.4,30.17,SE,132,3.0,3.0,58,0.00,,,-99.99,Weather View 32 v60,2013-01-05 16:10:00,
2013-01-05 11:15:00,23.5,11.3,30.17,ESE,113,2.0,4.0,59,0.00,,,-99.99,Weather View 32 v60,2013-01-05 16:15:00,
2013-01-05 11:25:00,24.4,12.5,30.14,SSE,157,3.0,4.0,60,0.00,,,-99.99,Weather View 32 v60,2013-01-05 16:25:00,
2013-01-05 11:30:00,25.0,13.1,30.14,SSE,167,0.0,4.0,60,0.00,,,-99.99,Weather View 32 v60,2013-01-05 16:30:00,
2013-01-05 11:35:00,25.3,13.4,30.14,SSE,161,0.0,4.0,60,0.00,,,-99.99,Weather View 32 v60,2013-01-05 16:35:00,
2013-01-05 11:40:00,25.7,13.7,30.14,SSE,159,0.0,4.0,60,0.00,,,-99.99,Weather View 32 v60,2013-01-05 16:40:00,
2013-01-05 11:45:00,26.1,14.4,30.14,ESE,112,0.0,4.0,61,0.00,,,-99.99,Weather View 32 v60,2013-01-05 16:45:00,
2013-01-05 11:50:00,26.2,14.6,30.14,ESE,123,0.0,4.0,61,0.00,,,-99.99,Weather View 32 v60,2013-01-05 16:50:00,
2013-01-05 11:55:00,26.6,15.3,30.14,ESE,123,0.0,4.0,62,0.00,,,-99.99,Weather View 32 v60,2013-01-05 16:55:00,
2013-01-05 12:00:00,27.0,15.7,30.14,ESE,114,0.0,4.0,62,0.00,,,-99.99,Weather View 32 v60,2013-01-05 17:00:00,
2013-01-05 12:05:00,27.1,15.8,30.14,SE,144,3.0,4.0,62,0.00,,,-99.99,Weather View 32 v60,2013-01-05 17:05:00,
2013-01-05 12:10:00,27.5,16.2,30.14,SE,140,0.0,4.0,62,0.00,,,-99.99,Weather View 32 v60,2013-01-05 17:10:00,
2013-01-05 12:15:00,27.7,16.4,30.14,SSE,155,0.0,4.0,62,0.00,,,-99.99,Weather View 32 v60,2013-01-05 17:15:00,
2013-01-05 12:20:00,28.0,16.7,30.14,SSE,152,0.0,4.0,62,0.00,,,-99.99,Weather View 32 v60,2013-01-05 17:20:00,
2013-01-05 12:25:00,28.2,16.9,30.11,SSE,154,0.0,4.0,62,0.00,,,-99.99,Weather View 32 v60,2013-01-05 17:25:00,
2013-01-05 12:35:00,28.6,16.8,30.11,SE,139,3.0,4.0,61,0.00,,,-99.99,Weather View 32 v60,2013-01-05 17:35:00,
2013-01-05 12:40:00,28.9,16.8,30.11,SE,146,3.0,4.0,60,0.00,,,-99.99,Weather View 32 v60,2013-01-05 17:40:00,
2013-01-05 12:45:00,28.9,16.4,30.11,SSE,150,0.0,4.0,59,0.00,,,-99.99,Weather View 32 v60,2013-01-05 17:45:00,
2013-01-05 12:50:00,29.1,16.6,30.08,SE,138,4.0,4.0,59,0.00,,,-99.99,Weather View 32 v60,2013-01-05 17:50:00,
2013-01-05 12:55:00,29.5,16.9,30.08,SSE,156,3.0,4.0,59,0.00,,,-99.99,Weather View 32 v60,2013-01-05 17:55:00,
2013-01-05 13:00:00,29.7,16.7,30.08,SE,125,3.0,4.0,58,0.00,,,-99.99,Weather View 32 v60,2013-01-05 18:00:00,
2013-01-05 13:05:00,29.8,16.9,30.08,SSE,160,0.0,4.0,58,0.00,,,-99.99,Weather View 32 v60,2013-01-05 18:05:00,
2013-01-05 13:10:00,30.0,17.0,30.08,SSE,155,3.0,4.0,58,0.00,,,-99.99,Weather View 32 v60,2013-01-05 18:10:00,
2013-01-05 13:15:00,30.2,16.8,30.08,SSE,152,3.0,4.0,57,0.00,,,-99.99,Weather View 32 v60,2013-01-05 18:15:00,
2013-01-05 13:20:00,30.4,16.5,30.08,SSE,165,0.0,4.0,56,0.00,,,-99.99,Weather View 32 v60,2013-01-05 18:20:00,
2013-01-05 13:25:00,30.6,16.7,30.08,SSE,147,4.0,4.0,56,0.00,,,-99.99,Weather View 32 v60,2013-01-05 18:25:00,
2013-01-05 13:30:00,30.7,16.5,30.08,SSE,164,3.0,4.0,55,0.00,,,-99.99,Weather View 32 v60,2013-01-05 18:30:00,
2013-01-05 13:35:00,30.9,16.6,30.05,SSE,162,0.0,4.0,55,0.00,,,-99.99,Weather View 32 v60,2013-01-05 18:35:00,
2013-01-05 13:40:00,30.9,16.2,30.05,SE,144,0.0,4.0,54,0.00,,,-99.99,Weather View 32 v60,2013-01-05 18:40:00,
2013-01-05 13:45:00,31.1,16.4,30.05,South,191,0.0,4.0,54,0.00,,,-99.99,Weather View 32 v60,2013-01-05 18:45:00,
2013-01-05 13:50:00,31.1,16.4,30.05,SSE,163,0.0,4.0,54,0.00,,,-99.99,Weather View 32 v60,2013-01-05 18:50:00,
2013-01-05 13:55:00,31.1,16.4,30.05,SSE,156,0.0,4.0,54,0.00,,,-99.99,Weather View 32 v60,2013-01-05 18:55:00,
2013-01-05 14:00:00,31.3,16.6,30.05,SW,235,3.0,4.0,54,0.00,,,-99.99,Weather View 32 v60,2013-01-05 19:00:00,
2013-01-05 14:05:00,31.3,16.6,30.05,SSW,201,0.0,4.0,54,0.00,,,-99.99,Weather View 32 v60,2013-01-05 19:05:00,
2013-01-05 14:10:00,31.5,16.3,30.05,SSE,147,4.0,5.0,53,0.00,,,-99.99,Weather View 32 v60,2013-01-05 19:10:00,
2013-01-05 14:15:00,31.6,16.5,30.05,South,177,2.0,5.0,53,0.00,,,-99.99,Weather View 32 v60,2013-01-05 19:15:00,
2013-01-05 14:20:00,31.6,16.5,30.05,SSW,203,0.0,7.0,53,0.00,,,-99.99,Weather View 32 v60,2013-01-05 19:20:00,
2013-01-05 14:25:00,31.8,16.2,30.05,SSE,164,0.0,7.0,52,0.00,,,-99.99,Weather View 32 v60,2013-01-05 19:25:00,
2013-01-05 14:30:00,32.0,16.4,30.05,SSW,197,4.0,7.0,52,0.00,,,-99.99,Weather View 32 v60,2013-01-05 19:30:00,
2013-01-05 14:35:00,32.2,16.1,30.02,South,185,0.0,7.0,51,0.00,,,-99.99,Weather View 32 v60,2013-01-05 19:35:00,
2013-01-05 14:40:00,32.2,16.1,30.02,SSW,208,0.0,7.0,51,0.00,,,-99.99,Weather View 32 v60,2013-01-05 19:40:00,
2013-01-05 14:45:00,32.4,16.2,30.02,SW,222,0.0,7.0,51,0.00,,,-99.99,Weather View 32 v60,2013-01-05 19:45:00,
2013-01-05 14:50:00,32.5,16.4,30.02,SW,217,0.0,7.0,51,0.00,,,-99.99,Weather View 32 v60,2013-01-05 19:50:00,
2013-01-05 14:55:00,32.5,15.9,30.02,South,190,0.0,7.0,50,0.00,,,-99.99,Weather View 32 v60,2013-01-05 19:55:00,
2013-01-05 15:00:00,32.5,15.9,30.02,WSW,238,0.0,7.0,50,0.00,,,-99.99,Weather View 32 v60,2013-01-05 20:00:00,
2013-01-05 15:05:00,32.5,15.9,30.02,SSW,197,0.0,7.0,50,0.00,,,-99.99,Weather View 32 v60,2013-01-05 20:05:00,
2013-01-05 15:15:00,32.5,15.5,30.02,South,175,0.0,7.0,49,0.00,,,-99.99,Weather View 32 v60,2013-01-05 20:15:00,
2013-01-05 15:20:00,32.5,15.5,30.02,South,177,0.0,6.0,49,0.00,,,-99.99,Weather View 32 v60,2013-01-05 20:20:00,
2013-01-05 15:25:00,32.7,15.6,30.02,South,171,3.0,5.0,49,0.00,,,-99.99,Weather View 32 v60,2013-01-05 20:25:00,
2013-01-05 15:30:00,32.7,15.6,30.02,SE,143,3.0,5.0,49,0.00,,,-99.99,Weather View 32 v60,2013-01-05 20:30:00,
2013-01-05 15:35:00,32.9,15.3,30.02,WSW,238,0.0,4.0,48,0.00,,,-99.99,Weather View 32 v60,2013-01-05 20:35:00,
2013-01-05 15:40:00,33.1,15.5,30.02,SSE,166,0.0,5.0,48,0.00,,,-99.99,Weather View 32 v60,2013-01-05 20:40:00,
2013-01-05 15:50:00,33.3,15.7,30.02,SSW,192,0.0,5.0,48,0.00,,,-99.99,Weather View 32 v60,2013-01-05 20:50:00,
2013-01-05 15:55:00,33.6,16.0,30.02,South,174,0.0,5.0,48,0.00,,,-99.99,Weather View 32 v60,2013-01-05 20:55:00,
2013-01-05 16:00:00,33.6,16.0,30.02,West,278,0.0,5.0,48,0.00,,,-99.99,Weather View 32 v60,2013-01-05 21:00:00,
2013-01-05 16:05:00,33.8,15.7,29.99,South,190,0.0,5.0,47,0.00,,,-99.99,Weather View 32 v60,2013-01-05 21:05:00,
2013-01-05 16:10:00,33.8,15.7,29.99,South,170,0.0,5.0,47,0.00,,,-99.99,Weather View 32 v60,2013-01-05 21:10:00,
2013-01-05 16:15:00,34.0,15.4,29.99,SSE,163,0.0,5.0,46,0.00,,,-99.99,Weather View 32 v60,2013-01-05 21:15:00,
2013-01-05 16:20:00,34.0,15.4,29.99,South,187,3.0,5.0,46,0.00,,,-99.99,Weather View 32 v60,2013-01-05 21:20:00,
2013-01-05 16:25:00,34.0,14.9,29.99,South,188,4.0,5.0,45,0.00,,,-99.99,Weather View 32 v60,2013-01-05 21:25:00,
2013-01-05 16:30:00,34.0,14.3,29.99,SSW,194,0.0,5.0,44,0.00,,,-99.99,Weather View 32 v60,2013-01-05 21:30:00,
2013-01-05 16:35:00,34.0,14.3,29.99,SSW,194,0.0,5.0,44,0.00,,,-99.99,Weather View 32 v60,2013-01-05 21:35:00,
2013-01-05 16:40:00,34.0,14.3,29.99,South,184,0.0,5.0,44,0.00,,,-99.99,Weather View 32 v60,2013-01-05 21:40:00,
2013-01-05 16:45:00,33.8,14.2,29.99,South,185,0.0,5.0,44,0.00,,,-99.99,Weather View 32 v60,2013-01-05 21:45:00,
2013-01-05 16:50:00,33.8,13.6,29.99,South,181,0.0,5.0,43,0.00,,,-99.99,Weather View 32 v60,2013-01-05 21:50:00,
2013-01-05 16:55:00,33.6,13.5,29.99,South,177,0.0,5.0,43,0.00,,,-99.99,Weather View 32 v60,2013-01-05 21:55:00,
2013-01-05 17:00:00,33.4,13.3,29.99,South,172,0.0,5.0,43,0.00,,,-99.99,Weather View 32 v60,2013-01-05 22:00:00,
2013-01-05 17:05:00,33.3,13.2,29.99,South,180,0.0,5.0,43,0.00,,,-99.99,Weather View 32 v60,2013-01-05 22:05:00,
2013-01-05 17:10:00,33.3,13.2,29.99,South,173,0.0,5.0,43,0.00,,,-99.99,Weather View 32 v60,2013-01-05 22:10:00,
2013-01-05 17:15:00,33.1,13.0,29.99,South,170,0.0,5.0,43,0.00,,,-99.99,Weather View 32 v60,2013-01-05 22:15:00,
2013-01-05 17:20:00,32.9,12.8,29.99,South,170,0.0,5.0,43,0.00,,,-99.99,Weather View 32 v60,2013-01-05 22:20:00,
2013-01-05 17:25:00,32.9,12.8,29.99,SSE,156,0.0,5.0,43,0.00,,,-99.99,Weather View 32 v60,2013-01-05 22:25:00,
2013-01-05 17:30:00,32.9,12.8,29.99,SSE,158,0.0,5.0,43,0.00,,,-99.99,Weather View 32 v60,2013-01-05 22:30:00,
2013-01-05 17:35:00,32.9,12.8,29.99,SSW,201,0.0,4.0,43,0.00,,,-99.99,Weather View 32 v60,2013-01-05 22:35:00,
2013-01-05 17:40:00,32.9,12.8,29.99,South,191,0.0,4.0,43,0.00,,,-99.99,Weather View 32 v60,2013-01-05 22:40:00,
2013-01-05 17:45:00,32.7,12.7,29.99,South,187,0.0,4.0,43,0.00,,,-99.99,Weather View 32 v60,2013-01-05 22:45:00,
2013-01-05 17:50:00,32.7,12.7,29.99,South,175,0.0,4.0,43,0.00,,,-99.99,Weather View 32 v60,2013-01-05 22:50:00,
2013-01-05 17:55:00,32.7,12.7,29.99,SW,214,0.0,4.0,43,0.00,,,-99.99,Weather View 32 v60,2013-01-05 22:55:00,
2013-01-05 18:00:00,32.7,12.7,29.99,SSE,162,3.0,4.0,43,0.00,,,-99.99,Weather View 32 v60,2013-01-05 23:00:00,
2013-01-05 18:05:00,32.7,12.7,29.99,South,172,0.0,4.0,43,0.00,,,-99.99,Weather View 32 v60,2013-01-05 23:05:00,
2013-01-05 18:10:00,32.7,12.1,29.96,South,174,0.0,4.0,42,0.00,,,-99.99,Weather View 32 v60,2013-01-05 23:10:00,
2013-01-05 18:15:00,32.7,12.1,29.96,SSW,195,0.0,4.0,42,0.00,,,-99.99,Weather View 32 v60,2013-01-05 23:15:00,
2013-01-05 18:20:00,32.7,12.1,29.96,SSW,193,0.0,4.0,42,0.00,,,-99.99,Weather View 32 v60,2013-01-05 23:20:00,
2013-01-05 18:25:00,32.7,12.1,29.96,SSW,198,0.0,4.0,42,0.00,,,-99.99,Weather View 32 v60,2013-01-05 23:25:00,
2013-01-05 18:30:00,32.7,12.1,29.96,SSW,200,0.0,4.0,42,0.00,,,-99.99,Weather View 32 v60,2013-01-05 23:30:00,
2013-01-05 18:35:00,32.7,12.1,29.96,SW,220,0.0,4.0,42,0.00,,,-99.99,Weather View 32 v60,2013-01-05 23:35:00,
2013-01-05 18:40:00,32.7,12.1,29.96,WSW,243,0.0,4.0,42,0.00,,,-99.99,Weather View 32 v60,2013-01-05 23:40:00,
2013-01-05 18:45:00,32.7,12.1,29.96,South,183,0.0,4.0,42,0.00,,,-99.99,Weather View 32 v60,2013-01-05 23:45:00,
2013-01-05 18:50:00,32.7,12.1,29.96,South,175,0.0,4.0,42,0.00,,,-99.99,Weather View 32 v60,2013-01-05 23:50:00,
2013-01-05 18:55:00,32.7,12.1,29.96,South,176,0.0,4.0,42,0.00,,,-99.99,Weather View 32 v60,2013-01-05 23:55:00,
2013-01-05 19:00:00,32.7,12.1,29.96,SSE,166,0.0,4.0,42,0.00,,,-99.99,Weather View 32 v60,2013-01-06 00:00:00,
2013-01-05 19:05:00,32.7,12.1,29.96,SSE,152,0.0,4.0,42,0.00,,,-99.99,Weather View 32 v60,2013-01-06 00:05:00,
2013-01-05 19:10:00,32.7,12.1,29.96,SW,219,0.0,4.0,42,0.00,,,-99.99,Weather View 32 v60,2013-01-06 00:10:00,
2013-01-05 19:15:00,32.7,12.1,29.96,South,191,0.0,4.0,42,0.00,,,-99.99,Weather View 32 v60,2013-01-06 00:15:00,
2013-01-05 19:20:00,32.5,12.0,29.96,SW,231,3.0,4.0,42,0.00,,,-99.99,Weather View 32 v60,2013-01-06 00:20:00,
2013-01-05 19:25:00,32.5,12.0,29.96,WSW,253,2.0,5.0,42,0.00,,,-99.99,Weather View 32 v60,2013-01-06 00:25:00,
2013-01-05 19:30:00,32.5,12.5,29.96,SSE,162,3.0,8.0,43,0.00,,,-99.99,Weather View 32 v60,2013-01-06 00:30:00,
2013-01-05 19:35:00,32.5,12.5,29.96,South,189,3.0,8.0,43,0.00,,,-99.99,Weather View 32 v60,2013-01-06 00:35:00,
2013-01-05 19:40:00,32.5,13.0,29.96,South,187,0.0,8.0,44,0.00,,,-99.99,Weather View 32 v60,2013-01-06 00:40:00,
2013-01-05 19:45:00,32.5,13.0,29.96,South,189,0.0,8.0,44,0.00,,,-99.99,Weather View 32 v60,2013-01-06 00:45:00,
2013-01-05 19:50:00,32.5,13.5,29.96,SW,227,0.0,8.0,45,0.00,,,-99.99,Weather View 32 v60,2013-01-06 00:50:00,
2013-01-05 19:55:00,32.4,13.9,29.96,WSW,251,0.0,8.0,46,0.00,,,-99.99,Weather View 32 v60,2013-01-06 00:55:00,
2013-01-05 20:00:00,32.4,14.4,29.96,South,174,0.0,8.0,47,0.00,,,-99.99,Weather View 32 v60,2013-01-06 01:00:00,
2013-01-05 20:05:00,32.2,14.7,29.96,SSE,163,0.0,8.0,48,0.00,,,-99.99,Weather View 32 v60,2013-01-06 01:05:00,
2013-01-05 20:10:00,32.2,15.2,29.96,South,182,3.0,8.0,49,0.00,,,-99.99,Weather View 32 v60,2013-01-06 01:10:00,
2013-01-05 20:15:00,32.0,15.4,29.96,SSW,200,0.0,8.0,50,0.00,,,-99.99,Weather View 32 v60,2013-01-06 01:15:00,
2013-01-05 20:20:00,32.0,15.9,29.96,SSW,199,0.0,8.0,51,0.00,,,-99.99,Weather View 32 v60,2013-01-06 01:20:00,
2013-01-05 20:30:00,31.8,16.2,29.96,South,183,0.0,8.0,52,0.00,,,-99.99,Weather View 32 v60,2013-01-06 01:30:00,
2013-01-05 20:35:00,31.8,16.2,29.93,South,185,0.0,8.0,52,0.00,,,-99.99,Weather View 32 v60,2013-01-06 01:35:00,
2013-01-05 20:40:00,31.8,16.6,29.93,SW,224,0.0,8.0,53,0.00,,,-99.99,Weather View 32 v60,2013-01-06 01:40:00,
2013-01-05 20:45:00,31.8,16.6,29.93,South,169,0.0,8.0,53,0.00,,,-99.99,Weather View 32 v60,2013-01-06 01:45:00,
2013-01-05 20:50:00,31.8,17.1,29.93,SSW,194,0.0,8.0,54,0.00,,,-99.99,Weather View 32 v60,2013-01-06 01:50:00,
2013-01-05 21:00:00,31.8,17.5,29.93,South,169,0.0,5.0,55,0.00,,,-99.99,Weather View 32 v60,2013-01-06 02:00:00,
2013-01-05 21:05:00,31.8,17.5,29.93,SSW,200,0.0,4.0,55,0.00,,,-99.99,Weather View 32 v60,2013-01-06 02:05:00,
2013-01-05 21:10:00,31.8,17.5,29.93,SW,214,0.0,4.0,55,0.00,,,-99.99,Weather View 32 v60,2013-01-06 02:10:00,
2013-01-05 21:15:00,31.8,17.9,29.93,SSW,198,0.0,4.0,56,0.00,,,-99.99,Weather View 32 v60,2013-01-06 02:15:00,
2013-01-05 21:20:00,32.0,18.1,29.93,SSW,193,0.0,4.0,56,0.00,,,-99.99,Weather View 32 v60,2013-01-06 02:20:00,
2013-01-05 21:25:00,32.0,18.5,29.93,SSE,162,0.0,4.0,57,0.00,,,-99.99,Weather View 32 v60,2013-01-06 02:25:00,
2013-01-05 21:35:00,32.2,19.1,29.93,South,182,0.0,4.0,58,0.00,,,-99.99,Weather View 32 v60,2013-01-06 02:35:00,
2013-01-05 21:40:00,32.2,19.1,29.93,SSW,199,0.0,4.0,58,0.00,,,-99.99,Weather View 32 v60,2013-01-06 02:40:00,
2013-01-05 21:45:00,32.2,19.1,29.93,South,177,0.0,4.0,58,0.00,,,-99.99,Weather View 32 v60,2013-01-06 02:45:00,
2013-01-05 21:50:00,32.2,19.1,29.93,South,187,3.0,4.0,58,0.00,,,-99.99,Weather View 32 v60,2013-01-06 02:50:00,
2013-01-05 21:55:00,32.4,19.6,29.93,South,169,0.0,4.0,59,0.00,,,-99.99,Weather View 32 v60,2013-01-06 02:55:00,
2013-01-05 22:00:00,32.4,19.6,29.93,SW,218,0.0,4.0,59,0.00,,,-99.99,Weather View 32 v60,2013-01-06 03:00:00,
2013-01-05 22:05:00,32.4,19.6,29.93,South,172,0.0,4.0,59,0.00,,,-99.99,Weather View 32 v60,2013-01-06 03:05:00,
2013-01-05 22:10:00,32.5,20.2,29.90,South,189,0.0,4.0,60,0.00,,,-99.99,Weather View 32 v60,2013-01-06 03:10:00,
2013-01-05 22:15:00,32.5,20.2,29.90,SE,131,0.0,4.0,60,0.00,,,-99.99,Weather View 32 v60,2013-01-06 03:15:00,
2013-01-05 22:20:00,32.5,20.2,29.90,SW,221,3.0,4.0,60,0.00,,,-99.99,Weather View 32 v60,2013-01-06 03:20:00,
2013-01-05 22:25:00,32.5,20.6,29.90,SW,228,0.0,4.0,61,0.00,,,-99.99,Weather View 32 v60,2013-01-06 03:25:00,
2013-01-05 22:30:00,32.5,20.6,29.90,SSW,209,0.0,4.0,61,0.00,,,-99.99,Weather View 32 v60,2013-01-06 03:30:00,
2013-01-05 22:35:00,32.7,20.7,29.90,SE,134,0.0,4.0,61,0.00,,,-99.99,Weather View 32 v60,2013-01-06 03:35:00,
2013-01-05 22:45:00,32.7,21.1,29.90,West,274,0.0,4.0,62,0.00,,,-99.99,Weather View 32 v60,2013-01-06 03:45:00,
2013-01-05 22:55:00,32.7,21.1,29.90,SSW,211,0.0,4.0,62,0.00,,,-99.99,Weather View 32 v60,2013-01-06 03:55:00,
2013-01-05 23:00:00,32.7,21.5,29.90,SSW,195,0.0,4.0,63,0.00,,,-99.99,Weather View 32 v60,2013-01-06 04:00:00,
2013-01-05 23:05:00,32.7,21.5,29.90,SSW,192,0.0,4.0,63,0.00,,,-99.99,Weather View 32 v60,2013-01-06 04:05:00,
2013-01-05 23:10:00,32.7,21.5,29.90,SSW,192,0.0,4.0,63,0.00,,,-99.99,Weather View 32 v60,2013-01-06 04:10:00,
2013-01-05 23:15:00,32.7,21.5,29.90,South,189,0.0,4.0,63,0.00,,,-99.99,Weather View 32 v60,2013-01-06 04:15:00,
2013-01-05 23:20:00,32.7,21.5,29.90,SSW,196,0.0,3.0,63,0.00,,,-99.99,Weather View 32 v60,2013-01-06 04:20:00,
2013-01-05 23:25:00,32.7,21.9,29.90,SW,222,0.0,3.0,64,0.00,,,-99.99,Weather View 32 v60,2013-01-06 04:25:00,
2013-01-05 23:30:00,32.7,21.9,29.90,South,182,0.0,3.0,64,0.00,,,-99.99,Weather View 32 v60,2013-01-06 04:30:00,
2013-01-05 23:35:00,32.7,21.9,29.90,SW,229,0.0,3.0,64,0.00,,,-99.99,Weather View 32 v60,2013-01-06 04:35:00,
2013-01-05 23:40:00,32.9,22.0,29.90,SW,232,0.0,0.0,64,0.00,,,-99.99,Weather View 32 v60,2013-01-06 04:40:00,
2013-01-05 23:45:00,32.9,22.0,29.90,SW,233,0.0,5.0,64,0.00,,,-99.99,Weather View 32 v60,2013-01-06 04:45:00,
2013-01-05 23:50:00,32.9,22.0,29.90,SW,223,0.0,5.0,64,0.00,,,-99.99,Weather View 32 v60,2013-01-06 04:50:00,
2013-01-05 23:55:00,32.9,22.0,29.90,ESE,117,0.0,5.0,64,0.00,,,-99.99,Weather View 32 v60,2013-01-06 04:55:00,